KINEIS-3E

Last updated on Wed Mar 11 2026 00:02:47 GMT+0000 (Coordinated Universal Time)

1 61222U 24172C 26069.50479659 .00002777 00000+0 44695-3 0 9990 2 61222 98.0287 160.5025 0001608 104.6499 255.4886 14.72314062 78830
UTC large
Height (km)
Speed (km/s)
/
Latitude / Longitude
Inclination (degrees)
Orbital Period (minutes)
Azimuth
Elevation
Range (km)
Doppler Factor

Next 0 passes for location: London (51.5072 / 0.1276)

Sorry there are no passes over London.